TIGRISAT

Last updated on Sun Dec 14 2025 00:03:49 GMT+0000 (Coordinated Universal Time)

1 40043U 14033AK 25347.30839121 .00004239 00000+0 50309-3 0 9997 2 40043 97.7557 137.0004 0049493 325.6608 34.1410 14.84129669618049
UTC large
Height (km)
Speed (km/s)
/
Latitude / Longitude
Inclination (degrees)
Orbital Period (minutes)
Azimuth
Elevation
Range (km)
Doppler Factor

Next 0 passes for location: London (51.5072 / 0.1276)

Sorry there are no passes over London.